Year,Month,Day,Hour,Minute,Value (Times are PST for temperature in C)
2017,10,25,00,00,10.20
2017,10,25,00,01,10.20
2017,10,25,00,02,10.20
2017,10,25,00,03,10.20
2017,10,25,00,04,10.20
2017,10,25,00,05,10.20
2017,10,25,00,06,10.20
2017,10,25,00,07,10.20
2017,10,25,00,08,10.20
2017,10,25,00,09,10.20
2017,10,25,00,10,10.20
2017,10,25,00,11,10.20
2017,10,25,00,12,10.20
2017,10,25,00,13,10.20
2017,10,25,00,14,10.20
2017,10,25,00,15,10.20
2017,10,25,00,16,10.20
2017,10,25,00,17,10.30
2017,10,25,00,18,10.30
2017,10,25,00,19,10.30
2017,10,25,00,20,10.30
2017,10,25,00,21,10.30
2017,10,25,00,22,10.30
2017,10,25,00,23,10.30
2017,10,25,00,24,10.30
2017,10,25,00,25,10.30
2017,10,25,00,26,10.30
2017,10,25,00,27,10.30
2017,10,25,00,28,10.30
2017,10,25,00,29,10.30
2017,10,25,00,30,10.30
2017,10,25,00,31,10.30
2017,10,25,00,32,10.30
2017,10,25,00,33,10.30
2017,10,25,00,34,10.30
2017,10,25,00,35,10.30
2017,10,25,00,36,10.30
2017,10,25,00,37,10.20
2017,10,25,00,38,10.20
2017,10,25,00,39,10.20
2017,10,25,00,40,10.20
2017,10,25,00,41,10.20
2017,10,25,00,42,10.20
2017,10,25,00,43,10.20
2017,10,25,00,44,10.20
2017,10,25,00,45,10.20
2017,10,25,00,46,10.20
2017,10,25,00,47,10.20
2017,10,25,00,48,10.20
2017,10,25,00,49,10.20
2017,10,25,00,50,10.20
2017,10,25,00,51,10.20
2017,10,25,00,52,10.20
2017,10,25,00,53,10.20
2017,10,25,00,54,10.20
2017,10,25,00,55,10.20
2017,10,25,00,56,10.20
2017,10,25,00,57,10.30
2017,10,25,00,58,10.30
2017,10,25,00,59,10.30
2017,10,25,01,00,10.30
2017,10,25,01,01,10.30
2017,10,25,01,02,10.30
2017,10,25,01,03,10.30
2017,10,25,01,04,10.30
2017,10,25,01,05,10.30
2017,10,25,01,06,10.30
2017,10,25,01,07,10.30
2017,10,25,01,08,10.30
2017,10,25,01,09,10.30
2017,10,25,01,10,10.30
2017,10,25,01,11,10.30
2017,10,25,01,12,10.40
2017,10,25,01,13,10.40
2017,10,25,01,14,10.40
2017,10,25,01,15,10.40
2017,10,25,01,16,10.40
2017,10,25,01,17,10.40
2017,10,25,01,18,10.40
2017,10,25,01,19,10.30
2017,10,25,01,20,10.30
2017,10,25,01,21,10.30
2017,10,25,01,22,10.30
2017,10,25,01,23,10.30
2017,10,25,01,24,10.30
2017,10,25,01,25,10.30
2017,10,25,01,26,10.30
2017,10,25,01,27,10.30
2017,10,25,01,28,10.30
2017,10,25,01,29,10.30
2017,10,25,01,30,10.30
2017,10,25,01,31,10.30
2017,10,25,01,32,10.20
2017,10,25,01,33,10.20
2017,10,25,01,34,10.20
2017,10,25,01,35,10.20
2017,10,25,01,36,10.20
2017,10,25,01,37,10.20
2017,10,25,01,38,10.20
2017,10,25,01,39,10.20
2017,10,25,01,40,10.20
2017,10,25,01,41,10.20
2017,10,25,01,42,10.20
2017,10,25,01,43,10.20
2017,10,25,01,44,10.20
2017,10,25,01,45,10.20
2017,10,25,01,46,10.20
2017,10,25,01,47,10.20
2017,10,25,01,48,10.20
2017,10,25,01,49,10.20
2017,10,25,01,50,10.20
2017,10,25,01,51,10.20
2017,10,25,01,52,10.20
2017,10,25,01,53,10.20
2017,10,25,01,54,10.20
2017,10,25,01,55,10.20
2017,10,25,01,56,10.20
2017,10,25,01,57,10.20
2017,10,25,01,58,10.20
2017,10,25,01,59,10.20
2017,10,25,02,00,10.20
2017,10,25,02,01,10.30
2017,10,25,02,02,10.30
2017,10,25,02,03,10.40
2017,10,25,02,04,10.60
2017,10,25,02,05,10.70
2017,10,25,02,06,10.80
2017,10,25,02,07,11.00
2017,10,25,02,08,11.10
2017,10,25,02,09,11.20
2017,10,25,02,10,11.30
2017,10,25,02,11,11.40
2017,10,25,02,12,11.40
2017,10,25,02,13,11.60
2017,10,25,02,14,11.60
2017,10,25,02,15,11.70
2017,10,25,02,16,11.90
2017,10,25,02,17,12.10
2017,10,25,02,18,12.20
2017,10,25,02,19,12.30
2017,10,25,02,20,12.40
2017,10,25,02,21,12.40
2017,10,25,02,22,12.50
2017,10,25,02,23,12.60
2017,10,25,02,24,12.80
2017,10,25,02,25,12.90
2017,10,25,02,26,13.00
2017,10,25,02,27,13.10
2017,10,25,02,28,13.20
2017,10,25,02,29,13.30
2017,10,25,02,30,13.40
2017,10,25,02,31,13.60
2017,10,25,02,32,13.70
2017,10,25,02,33,13.70
2017,10,25,02,34,13.70
2017,10,25,02,35,13.80
2017,10,25,02,36,13.90
2017,10,25,02,37,13.90
2017,10,25,02,38,14.00
2017,10,25,02,39,14.10
2017,10,25,02,40,14.10
2017,10,25,02,41,14.20
2017,10,25,02,42,14.30
2017,10,25,02,43,14.30
2017,10,25,02,44,14.30
2017,10,25,02,45,14.30
2017,10,25,02,46,14.40
2017,10,25,02,47,14.40
2017,10,25,02,48,14.40
2017,10,25,02,49,14.40
2017,10,25,02,50,14.50
2017,10,25,02,51,14.50
2017,10,25,02,52,14.50
2017,10,25,02,53,14.60
2017,10,25,02,54,14.60
2017,10,25,02,55,14.60
2017,10,25,02,56,14.70
2017,10,25,02,57,14.70
2017,10,25,02,58,14.70
2017,10,25,02,59,14.70
2017,10,25,03,00,14.70
2017,10,25,03,01,14.70
2017,10,25,03,02,14.80
2017,10,25,03,03,14.80
2017,10,25,03,04,14.80
2017,10,25,03,05,14.80
2017,10,25,03,06,14.80
2017,10,25,03,07,14.80
2017,10,25,03,08,14.80
2017,10,25,03,09,14.80
2017,10,25,03,10,14.80
2017,10,25,03,11,14.80
2017,10,25,03,12,14.80
2017,10,25,03,13,14.80
2017,10,25,03,14,14.80
2017,10,25,03,15,14.80
2017,10,25,03,16,14.80
2017,10,25,03,17,14.90
2017,10,25,03,18,14.90
2017,10,25,03,19,14.90
2017,10,25,03,20,14.80
2017,10,25,03,21,14.80
2017,10,25,03,22,14.80
2017,10,25,03,23,14.70
2017,10,25,03,24,14.70
2017,10,25,03,25,14.70
2017,10,25,03,26,14.70
2017,10,25,03,27,14.70
2017,10,25,03,28,14.70
2017,10,25,03,29,14.60
2017,10,25,03,30,14.60
2017,10,25,03,31,14.60
2017,10,25,03,32,14.60
2017,10,25,03,33,14.60
2017,10,25,03,34,14.60
2017,10,25,03,35,14.50
2017,10,25,03,36,14.50
2017,10,25,03,37,14.50
2017,10,25,03,38,14.40
2017,10,25,03,39,14.40
2017,10,25,03,40,14.40
2017,10,25,03,41,14.40
2017,10,25,03,42,14.40
2017,10,25,03,43,14.40
2017,10,25,03,44,14.40
2017,10,25,03,45,14.40
2017,10,25,03,46,14.40
2017,10,25,03,47,14.30
2017,10,25,03,48,14.30
2017,10,25,03,49,14.30
2017,10,25,03,50,14.30
2017,10,25,03,51,14.30
2017,10,25,03,52,14.30
2017,10,25,03,53,14.30
2017,10,25,03,54,14.30
2017,10,25,03,55,14.30
2017,10,25,03,56,14.30
2017,10,25,03,57,14.30
2017,10,25,03,58,14.30
2017,10,25,03,59,14.30
2017,10,25,04,00,14.30
2017,10,25,04,01,14.20
2017,10,25,04,02,14.20
2017,10,25,04,03,14.20
2017,10,25,04,04,14.20
2017,10,25,04,05,14.20
2017,10,25,04,06,14.20
2017,10,25,04,07,14.20
2017,10,25,04,08,14.10
2017,10,25,04,09,14.10
2017,10,25,04,10,14.10
2017,10,25,04,11,14.10
2017,10,25,04,12,14.20
2017,10,25,04,13,14.20
2017,10,25,04,14,14.20
2017,10,25,04,15,14.20
2017,10,25,04,16,14.20
2017,10,25,04,17,14.20
2017,10,25,04,18,14.20
2017,10,25,04,19,14.20
2017,10,25,04,20,14.20
2017,10,25,04,21,14.20
2017,10,25,04,22,14.20
2017,10,25,04,23,14.20
2017,10,25,04,24,14.20
2017,10,25,04,25,14.20
2017,10,25,04,26,14.30
2017,10,25,04,27,14.30
2017,10,25,04,28,14.40
2017,10,25,04,29,14.30
2017,10,25,04,30,14.30
2017,10,25,04,31,14.30
2017,10,25,04,32,14.30
2017,10,25,04,33,14.30
2017,10,25,04,34,14.30
2017,10,25,04,35,14.30
2017,10,25,04,36,14.30
2017,10,25,04,37,14.20
2017,10,25,04,38,14.20
2017,10,25,04,39,14.20
2017,10,25,04,40,14.10
2017,10,25,04,41,14.00
2017,10,25,04,42,14.00
2017,10,25,04,43,13.90
2017,10,25,04,44,13.90
2017,10,25,04,45,13.90
2017,10,25,04,46,13.90
2017,10,25,04,47,13.80
2017,10,25,04,48,13.80
2017,10,25,04,49,13.80
2017,10,25,04,50,13.80
2017,10,25,04,51,13.80
2017,10,25,04,52,13.80
2017,10,25,04,53,13.70
2017,10,25,04,54,13.70
2017,10,25,04,55,13.70
2017,10,25,04,56,13.70
2017,10,25,04,57,13.70
2017,10,25,04,58,13.70
2017,10,25,04,59,13.70
2017,10,25,05,00,13.70
2017,10,25,05,01,13.70
2017,10,25,05,02,13.80
2017,10,25,05,03,13.80
2017,10,25,05,04,13.80
2017,10,25,05,05,13.80
2017,10,25,05,06,13.80
2017,10,25,05,07,13.80
2017,10,25,05,08,13.80
2017,10,25,05,09,13.80
2017,10,25,05,10,13.80
2017,10,25,05,11,13.80
2017,10,25,05,12,13.80
2017,10,25,05,13,13.80
2017,10,25,05,14,13.80
2017,10,25,05,15,13.80
2017,10,25,05,16,13.80
2017,10,25,05,17,13.80
2017,10,25,05,18,13.80
2017,10,25,05,19,13.90
2017,10,25,05,20,13.90
2017,10,25,05,21,13.90
2017,10,25,05,22,13.90
2017,10,25,05,23,13.90
2017,10,25,05,24,13.90
2017,10,25,05,25,13.90
2017,10,25,05,26,13.90
2017,10,25,05,27,13.80
2017,10,25,05,28,13.80
2017,10,25,05,29,13.80
2017,10,25,05,30,13.80
2017,10,25,05,31,13.80
2017,10,25,05,32,13.80
2017,10,25,05,33,13.80
2017,10,25,05,34,13.80
2017,10,25,05,35,13.80
2017,10,25,05,36,13.80
2017,10,25,05,37,13.80
2017,10,25,05,38,13.80
2017,10,25,05,39,13.80
2017,10,25,05,40,13.80
2017,10,25,05,41,13.90
2017,10,25,05,42,13.90
2017,10,25,05,43,13.90
2017,10,25,05,44,13.90
2017,10,25,05,45,14.00
2017,10,25,05,46,14.00
2017,10,25,05,47,14.00
2017,10,25,05,48,14.00
2017,10,25,05,49,14.00
2017,10,25,05,50,14.00
2017,10,25,05,51,14.00
2017,10,25,05,52,14.10
2017,10,25,05,53,14.10
2017,10,25,05,54,14.10
2017,10,25,05,55,14.10
2017,10,25,05,56,14.10
2017,10,25,05,57,14.10
2017,10,25,05,58,14.10
2017,10,25,05,59,14.10
2017,10,25,06,00,14.10
2017,10,25,06,01,14.10
2017,10,25,06,02,14.10
2017,10,25,06,03,14.10
2017,10,25,06,04,14.00
2017,10,25,06,05,14.00
2017,10,25,06,06,14.00
2017,10,25,06,07,14.00
2017,10,25,06,08,14.00
2017,10,25,06,09,14.00
2017,10,25,06,10,14.00
2017,10,25,06,11,14.00
2017,10,25,06,12,14.00
2017,10,25,06,13,14.10
2017,10,25,06,14,14.10
2017,10,25,06,15,14.10
2017,10,25,06,16,14.10
2017,10,25,06,17,14.10
2017,10,25,06,18,14.10
2017,10,25,06,19,14.10
2017,10,25,06,20,14.10
2017,10,25,06,21,14.10
2017,10,25,06,22,14.00
2017,10,25,06,23,14.00
2017,10,25,06,24,14.00
2017,10,25,06,25,13.90
2017,10,25,06,26,13.90
2017,10,25,06,27,13.90
2017,10,25,06,28,13.90
2017,10,25,06,29,13.80
2017,10,25,06,30,13.80
2017,10,25,06,31,13.80
2017,10,25,06,32,13.80
2017,10,25,06,33,13.80
2017,10,25,06,34,13.80
2017,10,25,06,35,13.80
2017,10,25,06,36,13.80
2017,10,25,06,37,13.80
2017,10,25,06,38,13.70
2017,10,25,06,39,13.80
2017,10,25,06,40,13.80
2017,10,25,06,41,13.80
2017,10,25,06,42,13.80
2017,10,25,06,43,13.80
2017,10,25,06,44,13.80
2017,10,25,06,45,13.80
2017,10,25,06,46,13.80
2017,10,25,06,47,13.80
2017,10,25,06,48,13.80
2017,10,25,06,49,13.80
2017,10,25,06,50,13.70
2017,10,25,06,51,13.70
2017,10,25,06,52,13.70
2017,10,25,06,53,13.70
2017,10,25,06,54,13.70
2017,10,25,06,55,13.70
2017,10,25,06,56,13.70
2017,10,25,06,57,13.70
2017,10,25,06,58,13.80
2017,10,25,06,59,13.80
2017,10,25,07,00,13.80
2017,10,25,07,01,13.80
2017,10,25,07,02,13.80
2017,10,25,07,03,13.80
2017,10,25,07,04,13.80
2017,10,25,07,05,13.80
2017,10,25,07,06,13.90
2017,10,25,07,07,13.90
2017,10,25,07,08,13.90
2017,10,25,07,09,13.90
2017,10,25,07,10,13.90
2017,10,25,07,11,14.00
2017,10,25,07,12,14.00
2017,10,25,07,13,14.00
2017,10,25,07,14,14.00
2017,10,25,07,15,14.00
2017,10,25,07,16,13.90
2017,10,25,07,17,13.90
2017,10,25,07,18,13.90
2017,10,25,07,19,13.80
2017,10,25,07,20,13.80
2017,10,25,07,21,13.70
2017,10,25,07,22,13.70
2017,10,25,07,23,13.70
2017,10,25,07,24,13.70
2017,10,25,07,25,13.70
2017,10,25,07,26,13.60
2017,10,25,07,27,13.60
2017,10,25,07,28,13.60
2017,10,25,07,29,13.50
2017,10,25,07,30,13.50
2017,10,25,07,31,13.40
2017,10,25,07,32,13.40
2017,10,25,07,33,13.40
2017,10,25,07,34,13.30
2017,10,25,07,35,13.30
2017,10,25,07,36,13.30
2017,10,25,07,37,13.30
2017,10,25,07,38,13.30
2017,10,25,07,39,13.30
2017,10,25,07,40,13.30
2017,10,25,07,41,13.20
2017,10,25,07,42,13.20
2017,10,25,07,43,13.20
2017,10,25,07,44,13.10
2017,10,25,07,45,13.10
2017,10,25,07,46,13.10
2017,10,25,07,47,13.10
2017,10,25,07,48,13.10
2017,10,25,07,49,13.10
2017,10,25,07,50,13.00
2017,10,25,07,51,13.00
2017,10,25,07,52,13.00
2017,10,25,07,53,13.00
2017,10,25,07,54,13.00
2017,10,25,07,55,12.90
2017,10,25,07,56,12.90
2017,10,25,07,57,12.90
2017,10,25,07,58,12.90
2017,10,25,07,59,12.90
2017,10,25,08,00,12.90
2017,10,25,08,01,12.90
2017,10,25,08,02,12.90
2017,10,25,08,03,12.90
2017,10,25,08,04,12.90
2017,10,25,08,05,12.80
2017,10,25,08,06,12.80
2017,10,25,08,07,12.80
2017,10,25,08,08,12.80
2017,10,25,08,09,12.80
2017,10,25,08,10,12.80
2017,10,25,08,11,12.80
2017,10,25,08,12,12.80
2017,10,25,08,13,12.80
2017,10,25,08,14,12.80
2017,10,25,08,15,12.80
2017,10,25,08,16,12.80
2017,10,25,08,17,12.80
2017,10,25,08,18,12.80
2017,10,25,08,19,12.80
2017,10,25,08,20,12.80
2017,10,25,08,21,12.80
2017,10,25,08,22,12.80
2017,10,25,08,23,12.80
2017,10,25,08,24,12.80
2017,10,25,08,25,12.80
2017,10,25,08,26,12.70
2017,10,25,08,27,12.70
2017,10,25,08,28,12.70
2017,10,25,08,29,12.70
2017,10,25,08,30,12.70
2017,10,25,08,31,12.60
2017,10,25,08,32,12.60
2017,10,25,08,33,12.60
2017,10,25,08,34,12.60
2017,10,25,08,35,12.60
2017,10,25,08,36,12.60
2017,10,25,08,37,12.50
2017,10,25,08,38,12.50
2017,10,25,08,39,12.50
2017,10,25,08,40,12.40
2017,10,25,08,41,12.40
2017,10,25,08,42,12.40
2017,10,25,08,43,12.40
2017,10,25,08,44,12.40
2017,10,25,08,45,12.40
2017,10,25,08,46,12.30
2017,10,25,08,47,12.30
2017,10,25,08,48,12.30
2017,10,25,08,49,12.30
2017,10,25,08,50,12.30
2017,10,25,08,51,12.30
2017,10,25,08,52,12.30
2017,10,25,08,53,12.30
2017,10,25,08,54,12.30
2017,10,25,08,55,12.30
2017,10,25,08,56,12.30
2017,10,25,08,57,12.30
2017,10,25,08,58,12.30
2017,10,25,08,59,12.30
2017,10,25,09,00,12.30
2017,10,25,09,01,12.30
2017,10,25,09,02,12.30
2017,10,25,09,03,12.30
2017,10,25,09,04,12.30
2017,10,25,09,05,12.30
2017,10,25,09,06,12.30
2017,10,25,09,07,12.30
2017,10,25,09,08,12.30
2017,10,25,09,09,12.30
2017,10,25,09,10,12.30
2017,10,25,09,11,12.30
2017,10,25,09,12,12.30
2017,10,25,09,13,12.30
2017,10,25,09,14,12.30
2017,10,25,09,15,12.40
2017,10,25,09,16,12.40
2017,10,25,09,17,12.40
2017,10,25,09,18,12.40
2017,10,25,09,19,12.40
2017,10,25,09,20,12.40
2017,10,25,09,21,12.50
2017,10,25,09,22,12.50
2017,10,25,09,23,12.50
2017,10,25,09,24,12.50
2017,10,25,09,25,12.60
2017,10,25,09,26,12.60
2017,10,25,09,27,12.60
2017,10,25,09,28,12.60
2017,10,25,09,29,12.60
2017,10,25,09,30,12.70
2017,10,25,09,31,12.70
2017,10,25,09,32,12.70
2017,10,25,09,33,12.70
2017,10,25,09,34,12.70
2017,10,25,09,35,12.80
2017,10,25,09,36,12.80
2017,10,25,09,37,12.80
2017,10,25,09,38,12.80
2017,10,25,09,39,12.80
2017,10,25,09,40,12.90
2017,10,25,09,41,12.90
2017,10,25,09,42,12.90
2017,10,25,09,43,12.90
2017,10,25,09,44,12.90
2017,10,25,09,45,13.00
2017,10,25,09,46,13.00
2017,10,25,09,47,13.00
2017,10,25,09,48,13.00
2017,10,25,09,49,13.10
2017,10,25,09,50,13.10
2017,10,25,09,51,13.10
2017,10,25,09,52,13.10
2017,10,25,09,53,13.10
2017,10,25,09,54,13.20
2017,10,25,09,55,13.20
2017,10,25,09,56,13.20
2017,10,25,09,57,13.20
2017,10,25,09,58,13.20
2017,10,25,09,59,13.20
2017,10,25,10,00,13.20
2017,10,25,10,01,13.20
2017,10,25,10,02,13.20
2017,10,25,10,03,13.20
2017,10,25,10,04,13.20
2017,10,25,10,05,13.20
2017,10,25,10,06,13.20
2017,10,25,10,07,13.30
2017,10,25,10,08,13.30
2017,10,25,10,09,13.30
2017,10,25,10,10,13.30
2017,10,25,10,11,13.30
2017,10,25,10,12,13.30
2017,10,25,10,13,13.30
2017,10,25,10,14,13.30
2017,10,25,10,15,13.30
2017,10,25,10,16,13.30
2017,10,25,10,17,13.30
2017,10,25,10,18,13.30
2017,10,25,10,19,13.40
2017,10,25,10,20,13.40
2017,10,25,10,21,13.40
2017,10,25,10,22,13.40
2017,10,25,10,23,13.40
2017,10,25,10,24,13.40
2017,10,25,10,25,13.40
2017,10,25,10,26,13.40
2017,10,25,10,27,13.40
2017,10,25,10,28,13.40
2017,10,25,10,29,13.40
2017,10,25,10,30,13.40
2017,10,25,10,31,13.40
2017,10,25,10,32,13.40
2017,10,25,10,33,13.40
2017,10,25,10,34,13.40
2017,10,25,10,35,13.40
2017,10,25,10,36,13.40
2017,10,25,10,37,13.40
2017,10,25,10,38,13.40
2017,10,25,10,39,13.40
2017,10,25,10,40,13.40
2017,10,25,10,41,13.40
2017,10,25,10,42,13.40
2017,10,25,10,43,13.40
2017,10,25,10,44,13.40
2017,10,25,10,45,13.40
2017,10,25,10,46,13.40
2017,10,25,10,47,13.40
2017,10,25,10,48,13.40
2017,10,25,10,49,13.40
2017,10,25,10,50,13.40
2017,10,25,10,51,13.30
2017,10,25,10,52,13.30
2017,10,25,10,53,13.30
2017,10,25,10,54,13.30
2017,10,25,10,55,13.30
2017,10,25,10,56,13.30
2017,10,25,10,57,13.30
2017,10,25,10,58,13.30
2017,10,25,10,59,13.30
2017,10,25,11,00,13.20
2017,10,25,11,01,13.20
2017,10,25,11,02,13.20
2017,10,25,11,03,13.20
2017,10,25,11,04,13.20
2017,10,25,11,05,13.10
2017,10,25,11,06,13.10
2017,10,25,11,07,13.10
2017,10,25,11,08,13.00
2017,10,25,11,09,13.00
2017,10,25,11,10,13.00
2017,10,25,11,11,12.90
2017,10,25,11,12,12.90
2017,10,25,11,13,12.90
2017,10,25,11,14,12.80
2017,10,25,11,15,12.80
2017,10,25,11,16,12.70
2017,10,25,11,17,12.70
2017,10,25,11,18,12.70
2017,10,25,11,19,12.70
2017,10,25,11,20,12.60
2017,10,25,11,21,12.60
2017,10,25,11,22,12.60
2017,10,25,11,23,12.50
2017,10,25,11,24,12.50
2017,10,25,11,25,12.50
2017,10,25,11,26,12.40
2017,10,25,11,27,12.40
2017,10,25,11,28,12.40
2017,10,25,11,29,12.40
2017,10,25,11,30,12.40
2017,10,25,11,31,12.40
2017,10,25,11,32,12.40
2017,10,25,11,33,12.40
2017,10,25,11,34,12.40
2017,10,25,11,35,12.40
2017,10,25,11,36,12.40
2017,10,25,11,37,12.40
2017,10,25,11,38,12.50
2017,10,25,11,39,12.50
2017,10,25,11,40,12.50
2017,10,25,11,41,12.60
2017,10,25,11,42,12.60
2017,10,25,11,43,12.60
2017,10,25,11,44,12.70
2017,10,25,11,45,12.70
2017,10,25,11,46,12.70
2017,10,25,11,47,12.80
2017,10,25,11,48,12.80
2017,10,25,11,49,12.80
2017,10,25,11,50,12.90
2017,10,25,11,51,12.90
2017,10,25,11,52,12.90
2017,10,25,11,53,13.00
2017,10,25,11,54,13.00
2017,10,25,11,55,13.10
2017,10,25,11,56,13.10
2017,10,25,11,57,13.20
2017,10,25,11,58,13.20
2017,10,25,11,59,13.30
2017,10,25,12,00,13.40
2017,10,25,12,01,13.40
2017,10,25,12,02,13.50
2017,10,25,12,03,13.50
2017,10,25,12,04,13.60
2017,10,25,12,05,13.60
2017,10,25,12,06,13.60
2017,10,25,12,07,13.60
2017,10,25,12,08,13.70
2017,10,25,12,09,13.70
2017,10,25,12,10,13.80
2017,10,25,12,11,13.80
2017,10,25,12,12,13.80
2017,10,25,12,13,13.90
2017,10,25,12,14,13.90
2017,10,25,12,15,13.90
2017,10,25,12,16,14.00
2017,10,25,12,17,14.00
2017,10,25,12,18,14.10
2017,10,25,12,19,14.10
2017,10,25,12,20,14.10
2017,10,25,12,21,14.20
2017,10,25,12,22,14.20
2017,10,25,12,23,14.20
2017,10,25,12,24,14.30
2017,10,25,12,25,14.40
2017,10,25,12,26,14.40
2017,10,25,12,27,14.40
2017,10,25,12,28,14.50
2017,10,25,12,29,14.50
2017,10,25,12,30,14.50
2017,10,25,12,31,14.60
2017,10,25,12,32,14.60
2017,10,25,12,33,14.60
2017,10,25,12,34,14.60
2017,10,25,12,35,14.60
2017,10,25,12,36,14.60
2017,10,25,12,37,14.60
2017,10,25,12,38,14.60
2017,10,25,12,39,14.60
2017,10,25,12,40,14.50
2017,10,25,12,41,14.50
2017,10,25,12,42,14.50
2017,10,25,12,43,14.50
2017,10,25,12,44,14.50
2017,10,25,12,45,14.50
2017,10,25,12,46,14.60
2017,10,25,12,47,14.60
2017,10,25,12,48,14.70
2017,10,25,12,49,14.70
2017,10,25,12,50,14.70
2017,10,25,12,51,14.80
2017,10,25,12,52,14.80
2017,10,25,12,53,14.90
2017,10,25,12,54,14.90
2017,10,25,12,55,15.00
2017,10,25,12,56,15.10
2017,10,25,12,57,15.10
2017,10,25,12,58,15.20
2017,10,25,12,59,15.30
2017,10,25,13,00,15.30
2017,10,25,13,01,15.30
2017,10,25,13,02,15.40
2017,10,25,13,03,15.40
2017,10,25,13,04,15.50
2017,10,25,13,05,15.50
2017,10,25,13,06,15.50
2017,10,25,13,07,15.50
2017,10,25,13,08,15.50
2017,10,25,13,09,15.50
2017,10,25,13,10,15.50
2017,10,25,13,11,15.50
2017,10,25,13,12,15.50
2017,10,25,13,13,15.40
2017,10,25,13,14,15.50
2017,10,25,13,15,15.40
2017,10,25,13,16,15.50
2017,10,25,13,17,15.50
2017,10,25,13,18,15.50
2017,10,25,13,19,15.50
2017,10,25,13,20,15.50
2017,10,25,13,21,15.40
2017,10,25,13,22,15.40
2017,10,25,13,23,15.40
2017,10,25,13,24,15.40
2017,10,25,13,25,15.40
2017,10,25,13,26,15.40
2017,10,25,13,27,15.30
2017,10,25,13,28,15.30
2017,10,25,13,29,15.40
2017,10,25,13,30,15.40
2017,10,25,13,31,15.40
2017,10,25,13,32,15.40
2017,10,25,13,33,15.40
2017,10,25,13,34,15.40
2017,10,25,13,35,15.50
2017,10,25,13,36,15.50
2017,10,25,13,37,15.40
2017,10,25,13,38,15.30
2017,10,25,13,39,15.20
2017,10,25,13,40,15.10
2017,10,25,13,41,15.00
2017,10,25,13,42,14.90
2017,10,25,13,43,14.80
2017,10,25,13,44,14.80
2017,10,25,13,45,14.80
2017,10,25,13,46,14.80
2017,10,25,13,47,14.80
2017,10,25,13,48,14.80
2017,10,25,13,49,14.80
2017,10,25,13,50,14.80
2017,10,25,13,51,14.80
2017,10,25,13,52,14.80
2017,10,25,13,53,14.80
2017,10,25,13,54,14.80
2017,10,25,13,55,14.90
2017,10,25,13,56,14.90
2017,10,25,13,57,15.00
2017,10,25,13,58,15.00
2017,10,25,13,59,15.00
2017,10,25,14,00,15.10
2017,10,25,14,01,15.20
2017,10,25,14,02,15.20
2017,10,25,14,03,15.30
2017,10,25,14,04,15.30
2017,10,25,14,05,15.40
2017,10,25,14,06,15.40
2017,10,25,14,07,15.40
2017,10,25,14,08,15.30
2017,10,25,14,09,15.30
2017,10,25,14,10,15.30
2017,10,25,14,11,15.30
2017,10,25,14,12,15.30
2017,10,25,14,13,15.30
2017,10,25,14,14,15.40
2017,10,25,14,15,15.30
2017,10,25,14,16,15.30
2017,10,25,14,17,15.30
2017,10,25,14,18,15.30
2017,10,25,14,19,15.30
2017,10,25,14,20,15.30
2017,10,25,14,21,15.20
2017,10,25,14,22,15.20
2017,10,25,14,23,15.10
2017,10,25,14,24,15.10
2017,10,25,14,25,15.10
2017,10,25,14,26,15.10
2017,10,25,14,27,15.10
2017,10,25,14,28,15.10
2017,10,25,14,29,15.10
2017,10,25,14,30,15.10
2017,10,25,14,31,15.10
2017,10,25,14,32,15.10
2017,10,25,14,33,15.00
2017,10,25,14,34,15.00
2017,10,25,14,35,14.90
2017,10,25,14,36,15.00
2017,10,25,14,37,15.00
2017,10,25,14,38,15.00
2017,10,25,14,39,15.10
2017,10,25,14,40,15.10
2017,10,25,14,41,15.10
2017,10,25,14,42,15.20
2017,10,25,14,43,15.20
2017,10,25,14,44,15.30
2017,10,25,14,45,15.30
2017,10,25,14,46,15.40
2017,10,25,14,47,15.40
2017,10,25,14,48,15.50
2017,10,25,14,49,15.50
2017,10,25,14,50,15.50
2017,10,25,14,51,15.60
2017,10,25,14,52,15.60
2017,10,25,14,53,15.60
2017,10,25,14,54,15.60
2017,10,25,14,55,15.60
2017,10,25,14,56,15.60
2017,10,25,14,57,15.60
2017,10,25,14,58,15.60
2017,10,25,14,59,15.60
2017,10,25,15,00,15.60
2017,10,25,15,01,15.60
2017,10,25,15,02,15.60
2017,10,25,15,03,15.60
2017,10,25,15,04,15.60
2017,10,25,15,05,15.60
2017,10,25,15,06,15.60
2017,10,25,15,07,15.60
2017,10,25,15,08,15.50
2017,10,25,15,09,15.50
2017,10,25,15,10,15.40
2017,10,25,15,11,15.40
2017,10,25,15,12,15.30
2017,10,25,15,13,15.30
2017,10,25,15,14,15.30
2017,10,25,15,15,15.30
2017,10,25,15,16,15.30
2017,10,25,15,17,15.30
2017,10,25,15,18,15.30
2017,10,25,15,19,15.30
2017,10,25,15,20,15.30
2017,10,25,15,21,15.30
2017,10,25,15,22,15.30
2017,10,25,15,23,15.40
2017,10,25,15,24,15.40
2017,10,25,15,25,15.40
2017,10,25,15,26,15.40
2017,10,25,15,27,15.40
2017,10,25,15,28,15.40
2017,10,25,15,29,15.40
2017,10,25,15,30,15.40
2017,10,25,15,31,15.40
2017,10,25,15,32,15.30
2017,10,25,15,33,15.30
2017,10,25,15,34,15.40
2017,10,25,15,35,15.40
2017,10,25,15,36,15.40
2017,10,25,15,37,15.50
2017,10,25,15,38,15.50
2017,10,25,15,39,15.60
2017,10,25,15,40,15.60
2017,10,25,15,41,15.60
2017,10,25,15,42,15.60
2017,10,25,15,43,15.60
2017,10,25,15,44,15.60
2017,10,25,15,45,15.50
2017,10,25,15,46,15.50
2017,10,25,15,47,15.50
2017,10,25,15,48,15.50
2017,10,25,15,49,15.50
2017,10,25,15,50,15.50
2017,10,25,15,51,15.60
2017,10,25,15,52,15.60
2017,10,25,15,53,15.60
2017,10,25,15,54,15.60
2017,10,25,15,55,15.60
2017,10,25,15,56,15.60
2017,10,25,15,57,15.50
2017,10,25,15,58,15.50
2017,10,25,15,59,15.40
2017,10,25,16,00,15.40
2017,10,25,16,01,15.30
2017,10,25,16,02,15.30
2017,10,25,16,03,15.20
2017,10,25,16,04,15.20
2017,10,25,16,05,15.20
2017,10,25,16,06,15.20
2017,10,25,16,07,15.20
2017,10,25,16,08,15.20
2017,10,25,16,09,15.20
2017,10,25,16,10,15.20
2017,10,25,16,11,15.20
2017,10,25,16,12,15.20
2017,10,25,16,13,15.20
2017,10,25,16,14,15.20
2017,10,25,16,15,15.20
2017,10,25,16,16,15.20
2017,10,25,16,17,15.20
2017,10,25,16,18,15.20
2017,10,25,16,19,15.20
2017,10,25,16,20,15.20
2017,10,25,16,21,15.20
2017,10,25,16,22,15.20
2017,10,25,16,23,15.30
2017,10,25,16,24,15.30
2017,10,25,16,25,15.30
2017,10,25,16,26,15.30
2017,10,25,16,27,15.30
2017,10,25,16,28,15.30
2017,10,25,16,29,15.30
2017,10,25,16,30,15.30
2017,10,25,16,31,15.20
2017,10,25,16,32,15.30
2017,10,25,16,33,15.30
2017,10,25,16,34,15.30
2017,10,25,16,35,15.30
2017,10,25,16,36,15.30
2017,10,25,16,37,15.30
2017,10,25,16,38,15.30
2017,10,25,16,39,15.30
2017,10,25,16,40,15.30
2017,10,25,16,41,15.30
2017,10,25,16,42,15.30
2017,10,25,16,43,15.30
2017,10,25,16,44,15.30
2017,10,25,16,45,15.30
2017,10,25,16,46,15.30
2017,10,25,16,47,15.30
2017,10,25,16,48,15.30
2017,10,25,16,49,15.30
2017,10,25,16,50,15.30
2017,10,25,16,51,15.30
2017,10,25,16,52,15.30
2017,10,25,16,53,15.30
2017,10,25,16,54,15.30
2017,10,25,16,55,15.30
2017,10,25,16,56,15.30
2017,10,25,16,57,15.40
2017,10,25,16,58,15.40
2017,10,25,16,59,15.30
2017,10,25,17,00,15.30
2017,10,25,17,01,15.30
2017,10,25,17,02,15.30
2017,10,25,17,03,15.30
2017,10,25,17,04,15.30
2017,10,25,17,05,15.30
2017,10,25,17,06,15.30
2017,10,25,17,07,15.20
2017,10,25,17,08,15.20
2017,10,25,17,09,15.20
2017,10,25,17,10,15.20
2017,10,25,17,11,15.10
2017,10,25,17,12,15.10
2017,10,25,17,13,15.10
2017,10,25,17,14,15.10
2017,10,25,17,15,15.10
2017,10,25,17,16,15.10
2017,10,25,17,17,15.10
2017,10,25,17,18,15.10
2017,10,25,17,19,15.10